Year,Month,Day,Hour,Minute,Value (Times are PST for temperature in C)
2016,04,15,00,00,9.80
2016,04,15,00,01,9.80
2016,04,15,00,02,9.80
2016,04,15,00,03,9.80
2016,04,15,00,04,9.80
2016,04,15,00,05,9.80
2016,04,15,00,06,9.80
2016,04,15,00,07,9.80
2016,04,15,00,08,9.80
2016,04,15,00,09,9.80
2016,04,15,00,10,9.80
2016,04,15,00,11,9.80
2016,04,15,00,12,9.80
2016,04,15,00,13,9.80
2016,04,15,00,14,9.80
2016,04,15,00,15,9.80
2016,04,15,00,16,9.80
2016,04,15,00,17,9.80
2016,04,15,00,18,9.80
2016,04,15,00,19,9.80
2016,04,15,00,20,9.80
2016,04,15,00,21,9.80
2016,04,15,00,22,9.80
2016,04,15,00,23,9.80
2016,04,15,00,24,9.80
2016,04,15,00,25,9.80
2016,04,15,00,26,9.70
2016,04,15,00,27,9.70
2016,04,15,00,28,9.70
2016,04,15,00,29,9.70
2016,04,15,00,30,9.70
2016,04,15,00,31,9.70
2016,04,15,00,32,9.70
2016,04,15,00,33,9.70
2016,04,15,00,34,9.70
2016,04,15,00,35,9.70
2016,04,15,00,36,9.70
2016,04,15,00,37,9.70
2016,04,15,00,38,9.70
2016,04,15,00,39,9.70
2016,04,15,00,40,9.70
2016,04,15,00,41,9.60
2016,04,15,00,42,9.60
2016,04,15,00,43,9.60
2016,04,15,00,44,9.60
2016,04,15,00,45,9.60
2016,04,15,00,46,9.60
2016,04,15,00,47,9.60
2016,04,15,00,48,9.60
2016,04,15,00,49,9.60
2016,04,15,00,50,9.60
2016,04,15,00,51,9.70
2016,04,15,00,52,9.60
2016,04,15,00,53,9.60
2016,04,15,00,54,9.60
2016,04,15,00,55,9.60
2016,04,15,00,56,9.60
2016,04,15,00,57,9.60
2016,04,15,00,58,9.60
2016,04,15,00,59,9.60
2016,04,15,01,00,9.60
2016,04,15,01,01,9.60
2016,04,15,01,02,9.60
2016,04,15,01,03,9.60
2016,04,15,01,04,9.60
2016,04,15,01,05,9.60
2016,04,15,01,06,9.60
2016,04,15,01,07,9.60
2016,04,15,01,08,9.60
2016,04,15,01,09,9.60
2016,04,15,01,10,9.60
2016,04,15,01,11,9.60
2016,04,15,01,12,9.60
2016,04,15,01,13,9.60
2016,04,15,01,14,9.60
2016,04,15,01,15,9.60
2016,04,15,01,16,9.60
2016,04,15,01,17,9.60
2016,04,15,01,18,9.60
2016,04,15,01,19,9.60
2016,04,15,01,20,9.60
2016,04,15,01,21,9.60
2016,04,15,01,22,9.60
2016,04,15,01,23,9.60
2016,04,15,01,24,9.60
2016,04,15,01,25,9.60
2016,04,15,01,26,9.50
2016,04,15,01,27,9.50
2016,04,15,01,28,9.50
2016,04,15,01,29,9.60
2016,04,15,01,30,9.60
2016,04,15,01,31,9.60
2016,04,15,01,32,9.60
2016,04,15,01,33,9.60
2016,04,15,01,34,9.60
2016,04,15,01,35,9.60
2016,04,15,01,36,9.60
2016,04,15,01,37,9.60
2016,04,15,01,38,9.60
2016,04,15,01,39,9.50
2016,04,15,01,40,9.50
2016,04,15,01,41,9.50
2016,04,15,01,42,9.50
2016,04,15,01,43,9.50
2016,04,15,01,44,9.50
2016,04,15,01,45,9.50
2016,04,15,01,46,9.50
2016,04,15,01,47,9.50
2016,04,15,01,48,9.50
2016,04,15,01,49,9.50
2016,04,15,01,50,9.50
2016,04,15,01,51,9.40
2016,04,15,01,52,9.40
2016,04,15,01,53,9.40
2016,04,15,01,54,9.40
2016,04,15,01,55,9.40
2016,04,15,01,56,9.40
2016,04,15,01,57,9.40
2016,04,15,01,58,9.40
2016,04,15,01,59,9.40
2016,04,15,02,00,9.40
2016,04,15,02,01,9.40
2016,04,15,02,02,9.40
2016,04,15,02,03,9.40
2016,04,15,02,04,9.50
2016,04,15,02,05,9.50
2016,04,15,02,06,9.50
2016,04,15,02,07,9.50
2016,04,15,02,08,9.60
2016,04,15,02,09,9.60
2016,04,15,02,10,9.50
2016,04,15,02,11,9.50
2016,04,15,02,12,9.50
2016,04,15,02,13,9.50
2016,04,15,02,14,9.50
2016,04,15,02,15,9.60
2016,04,15,02,16,9.60
2016,04,15,02,17,9.60
2016,04,15,02,18,9.60
2016,04,15,02,19,9.60
2016,04,15,02,20,9.60
2016,04,15,02,21,9.60
2016,04,15,02,22,9.60
2016,04,15,02,23,9.60
2016,04,15,02,24,9.60
2016,04,15,02,25,9.60
2016,04,15,02,26,9.60
2016,04,15,02,27,9.60
2016,04,15,02,28,9.60
2016,04,15,02,29,9.60
2016,04,15,02,30,9.60
2016,04,15,02,31,9.60
2016,04,15,02,32,9.60
2016,04,15,02,33,9.60
2016,04,15,02,34,9.60
2016,04,15,02,35,9.60
2016,04,15,02,36,9.60
2016,04,15,02,37,9.70
2016,04,15,02,38,9.70
2016,04,15,02,39,9.70
2016,04,15,02,40,9.70
2016,04,15,02,41,9.70
2016,04,15,02,42,9.70
2016,04,15,02,43,9.70
2016,04,15,02,44,9.70
2016,04,15,02,45,9.70
2016,04,15,02,46,9.80
2016,04,15,02,47,9.80
2016,04,15,02,48,9.80
2016,04,15,02,49,9.80
2016,04,15,02,50,9.80
2016,04,15,02,51,9.80
2016,04,15,02,52,9.80
2016,04,15,02,53,9.80
2016,04,15,02,54,9.70
2016,04,15,02,55,9.80
2016,04,15,02,56,9.80
2016,04,15,02,57,9.70
2016,04,15,02,58,9.80
2016,04,15,02,59,9.80
2016,04,15,03,00,9.80
2016,04,15,03,01,9.80
2016,04,15,03,02,9.80
2016,04,15,03,03,9.80
2016,04,15,03,04,9.80
2016,04,15,03,05,9.80
2016,04,15,03,06,9.80
2016,04,15,03,07,9.70
2016,04,15,03,08,9.70
2016,04,15,03,09,9.70
2016,04,15,03,10,9.70
2016,04,15,03,11,9.70
2016,04,15,03,12,9.70
2016,04,15,03,13,9.70
2016,04,15,03,14,9.70
2016,04,15,03,15,9.70
2016,04,15,03,16,9.70
2016,04,15,03,17,9.70
2016,04,15,03,18,9.70
2016,04,15,03,19,9.70
2016,04,15,03,20,9.70
2016,04,15,03,21,9.70
2016,04,15,03,22,9.70
2016,04,15,03,23,9.70
2016,04,15,03,24,9.70
2016,04,15,03,25,9.60
2016,04,15,03,26,9.60
2016,04,15,03,27,9.60
2016,04,15,03,28,9.70
2016,04,15,03,29,9.70
2016,04,15,03,30,9.70
2016,04,15,03,31,9.70
2016,04,15,03,32,9.70
2016,04,15,03,33,9.70
2016,04,15,03,34,9.70
2016,04,15,03,35,9.70
2016,04,15,03,36,9.70
2016,04,15,03,37,9.70
2016,04,15,03,38,9.70
2016,04,15,03,39,9.70
2016,04,15,03,40,9.70
2016,04,15,03,41,9.70
2016,04,15,03,42,9.70
2016,04,15,03,43,9.70
2016,04,15,03,44,9.70
2016,04,15,03,45,9.70
2016,04,15,03,46,9.70
2016,04,15,03,47,9.60
2016,04,15,03,48,9.70
2016,04,15,03,49,9.70
2016,04,15,03,50,9.70
2016,04,15,03,51,9.70
2016,04,15,03,52,9.70
2016,04,15,03,53,9.70
2016,04,15,03,54,9.70
2016,04,15,03,55,9.70
2016,04,15,03,56,9.70
2016,04,15,03,57,9.70
2016,04,15,03,58,9.70
2016,04,15,03,59,9.70
2016,04,15,04,00,9.70
2016,04,15,04,01,9.70
2016,04,15,04,02,9.70
2016,04,15,04,03,9.70
2016,04,15,04,04,9.70
2016,04,15,04,05,9.80
2016,04,15,04,06,9.80
2016,04,15,04,07,9.80
2016,04,15,04,08,9.80
2016,04,15,04,09,9.80
2016,04,15,04,10,9.80
2016,04,15,04,11,9.80
2016,04,15,04,12,9.80
2016,04,15,04,13,9.80
2016,04,15,04,14,9.80
2016,04,15,04,15,9.80
2016,04,15,04,16,9.80
2016,04,15,04,17,9.80
2016,04,15,04,18,9.80
2016,04,15,04,19,9.80
2016,04,15,04,20,9.80
2016,04,15,04,21,9.80
2016,04,15,04,22,9.80
2016,04,15,04,23,9.80
2016,04,15,04,24,9.80
2016,04,15,04,25,9.80
2016,04,15,04,26,9.80
2016,04,15,04,27,9.80
2016,04,15,04,28,9.70
2016,04,15,04,29,9.70
2016,04,15,04,30,9.70
2016,04,15,04,31,9.70
2016,04,15,04,32,9.70
2016,04,15,04,33,9.70
2016,04,15,04,34,9.70
2016,04,15,04,35,9.70
2016,04,15,04,36,9.70
2016,04,15,04,37,9.70
2016,04,15,04,38,9.70
2016,04,15,04,39,9.70
2016,04,15,04,40,9.70
2016,04,15,04,41,9.70
2016,04,15,04,42,9.70
2016,04,15,04,43,9.70
2016,04,15,04,44,9.70
2016,04,15,04,45,9.70
2016,04,15,04,46,9.70
2016,04,15,04,47,9.70
2016,04,15,04,48,9.70
2016,04,15,04,49,9.70
2016,04,15,04,50,9.70
2016,04,15,04,51,9.70
2016,04,15,04,52,9.70
2016,04,15,04,53,9.70
2016,04,15,04,54,9.70
2016,04,15,04,55,9.70
2016,04,15,04,56,9.70
2016,04,15,04,57,9.70
2016,04,15,04,58,9.70
2016,04,15,04,59,9.70
2016,04,15,05,00,9.70
2016,04,15,05,01,9.70
2016,04,15,05,02,9.70
2016,04,15,05,03,9.70
2016,04,15,05,04,9.70
2016,04,15,05,05,9.70
2016,04,15,05,06,9.70
2016,04,15,05,07,9.70
2016,04,15,05,08,9.70
2016,04,15,05,09,9.70
2016,04,15,05,10,9.70
2016,04,15,05,11,9.70
2016,04,15,05,12,9.70
2016,04,15,05,13,9.70
2016,04,15,05,14,9.70
2016,04,15,05,15,9.70
2016,04,15,05,16,9.70
2016,04,15,05,17,9.70
2016,04,15,05,18,9.60
2016,04,15,05,19,9.60
2016,04,15,05,20,9.60
2016,04,15,05,21,9.60
2016,04,15,05,22,9.60
2016,04,15,05,23,9.60
2016,04,15,05,24,9.60
2016,04,15,05,25,9.60
2016,04,15,05,26,9.60
2016,04,15,05,27,9.60
2016,04,15,05,28,9.60
2016,04,15,05,29,9.60
2016,04,15,05,30,9.60
2016,04,15,05,31,9.60
2016,04,15,05,32,9.60
2016,04,15,05,33,9.60
2016,04,15,05,34,9.60
2016,04,15,05,35,9.60
2016,04,15,05,36,9.50
2016,04,15,05,37,9.50
2016,04,15,05,38,9.50
2016,04,15,05,39,9.50
2016,04,15,05,40,9.50
2016,04,15,05,41,9.50
2016,04,15,05,42,9.50
2016,04,15,05,43,9.50
2016,04,15,05,44,9.50
2016,04,15,05,45,9.40
2016,04,15,05,46,9.40
2016,04,15,05,47,9.40
2016,04,15,05,48,9.40
2016,04,15,05,49,9.40
2016,04,15,05,50,9.40
2016,04,15,05,51,9.40
2016,04,15,05,52,9.40
2016,04,15,05,53,9.40
2016,04,15,05,54,9.40
2016,04,15,05,55,9.40
2016,04,15,05,56,9.40
2016,04,15,05,57,9.40
2016,04,15,05,58,9.40
2016,04,15,05,59,9.40
2016,04,15,06,00,9.50
2016,04,15,06,01,9.50
2016,04,15,06,02,9.50
2016,04,15,06,03,9.50
2016,04,15,06,04,9.40
2016,04,15,06,05,9.40
2016,04,15,06,06,9.40
2016,04,15,06,07,9.40
2016,04,15,06,08,9.50
2016,04,15,06,09,9.40
2016,04,15,06,10,9.40
2016,04,15,06,11,9.40
2016,04,15,06,12,9.50
2016,04,15,06,13,9.50
2016,04,15,06,14,9.50
2016,04,15,06,15,9.50
2016,04,15,06,16,9.40
2016,04,15,06,17,9.50
2016,04,15,06,18,9.40
2016,04,15,06,19,9.50
2016,04,15,06,20,9.40
2016,04,15,06,21,9.40
2016,04,15,06,22,9.40
2016,04,15,06,23,9.50
2016,04,15,06,24,9.50
2016,04,15,06,25,9.50
2016,04,15,06,26,9.50
2016,04,15,06,27,9.50
2016,04,15,06,28,9.50
2016,04,15,06,29,9.50
2016,04,15,06,30,9.50
2016,04,15,06,31,9.50
2016,04,15,06,32,9.50
2016,04,15,06,33,9.50
2016,04,15,06,34,9.50
2016,04,15,06,35,9.50
2016,04,15,06,36,9.50
2016,04,15,06,37,9.50
2016,04,15,06,38,9.50
2016,04,15,06,39,9.50
2016,04,15,06,40,9.60
2016,04,15,06,41,9.60
2016,04,15,06,42,9.60
2016,04,15,06,43,9.60
2016,04,15,06,44,9.60
2016,04,15,06,45,9.60
2016,04,15,06,46,9.60
2016,04,15,06,47,9.60
2016,04,15,06,48,9.70
2016,04,15,06,49,9.70
2016,04,15,06,50,9.70
2016,04,15,06,51,9.70
2016,04,15,06,52,9.70
2016,04,15,06,53,9.70
2016,04,15,06,54,9.70
2016,04,15,06,55,9.70
2016,04,15,06,56,9.70
2016,04,15,06,57,9.70
2016,04,15,06,58,9.70
2016,04,15,06,59,9.70
2016,04,15,07,00,9.70
2016,04,15,07,01,9.70
2016,04,15,07,02,9.70
2016,04,15,07,03,9.70
2016,04,15,07,04,9.70
2016,04,15,07,05,9.70
2016,04,15,07,06,9.80
2016,04,15,07,07,9.80
2016,04,15,07,08,9.80
2016,04,15,07,09,9.80
2016,04,15,07,10,9.80
2016,04,15,07,11,9.80
2016,04,15,07,12,9.80
2016,04,15,07,13,9.80
2016,04,15,07,14,9.80
2016,04,15,07,15,9.80
2016,04,15,07,16,9.80
2016,04,15,07,17,9.80
2016,04,15,07,18,9.80
2016,04,15,07,19,9.80
2016,04,15,07,20,9.80
2016,04,15,07,21,9.80
2016,04,15,07,22,9.80
2016,04,15,07,23,9.80
2016,04,15,07,24,9.90
2016,04,15,07,25,9.90
2016,04,15,07,26,9.90
2016,04,15,07,27,9.90
2016,04,15,07,28,9.90
2016,04,15,07,29,9.90
2016,04,15,07,30,9.90
2016,04,15,07,31,10.00
2016,04,15,07,32,10.00
2016,04,15,07,33,10.00
2016,04,15,07,34,10.00
2016,04,15,07,35,10.00
2016,04,15,07,36,10.00
2016,04,15,07,37,10.00
2016,04,15,07,38,10.00
2016,04,15,07,39,10.00
2016,04,15,07,40,10.00
2016,04,15,07,41,10.00
2016,04,15,07,42,10.10
2016,04,15,07,43,10.10
2016,04,15,07,44,10.10
2016,04,15,07,45,10.10
2016,04,15,07,46,10.10
2016,04,15,07,47,10.10
2016,04,15,07,48,10.10
2016,04,15,07,49,10.10
2016,04,15,07,50,10.10
2016,04,15,07,51,10.20
2016,04,15,07,52,10.20
2016,04,15,07,53,10.20
2016,04,15,07,54,10.20
2016,04,15,07,55,10.20
2016,04,15,07,56,10.20
2016,04,15,07,57,10.30
2016,04,15,07,58,10.30
2016,04,15,07,59,10.30
2016,04,15,08,00,10.30
2016,04,15,08,01,10.30
2016,04,15,08,02,10.30
2016,04,15,08,03,10.40
2016,04,15,08,04,10.40
2016,04,15,08,05,10.40
2016,04,15,08,06,10.40
2016,04,15,08,07,10.40
2016,04,15,08,08,10.50
2016,04,15,08,09,10.50
2016,04,15,08,10,10.50
2016,04,15,08,11,10.50
2016,04,15,08,12,10.60
2016,04,15,08,13,10.60
2016,04,15,08,14,10.60
2016,04,15,08,15,10.60
2016,04,15,08,16,10.60
2016,04,15,08,17,10.70
2016,04,15,08,18,10.70
2016,04,15,08,19,10.70
2016,04,15,08,20,10.70
2016,04,15,08,21,10.80
2016,04,15,08,22,10.80
2016,04,15,08,23,10.80
2016,04,15,08,24,10.80
2016,04,15,08,25,10.90
2016,04,15,08,26,10.90
2016,04,15,08,27,10.90
2016,04,15,08,28,11.00
2016,04,15,08,29,11.00
2016,04,15,08,30,11.00
2016,04,15,08,31,11.00
2016,04,15,08,32,11.00
2016,04,15,08,33,11.10
2016,04,15,08,34,11.10
2016,04,15,08,35,11.10
2016,04,15,08,36,11.10
2016,04,15,08,37,11.10
2016,04,15,08,38,11.20
2016,04,15,08,39,11.20
2016,04,15,08,40,11.20
2016,04,15,08,41,11.20
2016,04,15,08,42,11.30
2016,04,15,08,43,11.30
2016,04,15,08,44,11.30
2016,04,15,08,45,11.40
2016,04,15,08,46,11.40
2016,04,15,08,47,11.40
2016,04,15,08,48,11.40
2016,04,15,08,49,11.40
2016,04,15,08,50,11.40
2016,04,15,08,51,11.40
2016,04,15,08,52,11.40
2016,04,15,08,53,11.40
2016,04,15,08,54,11.50
2016,04,15,08,55,11.50
2016,04,15,08,56,11.50
2016,04,15,08,57,11.50
2016,04,15,08,58,11.60
2016,04,15,08,59,11.60
2016,04,15,09,00,11.60
2016,04,15,09,01,11.60
2016,04,15,09,02,11.60
2016,04,15,09,03,11.60
2016,04,15,09,04,11.60
2016,04,15,09,05,11.60
2016,04,15,09,06,11.60
2016,04,15,09,07,11.60
2016,04,15,09,08,11.60
2016,04,15,09,09,11.60
2016,04,15,09,10,11.70
2016,04,15,09,11,11.70
2016,04,15,09,12,11.70
2016,04,15,09,13,11.70
2016,04,15,09,14,11.70
2016,04,15,09,15,11.70
2016,04,15,09,16,11.70
2016,04,15,09,17,11.70
2016,04,15,09,18,11.70
2016,04,15,09,19,11.60
2016,04,15,09,20,11.60
2016,04,15,09,21,11.60
2016,04,15,09,22,11.50
2016,04,15,09,23,11.50
2016,04,15,09,24,11.40
2016,04,15,09,25,11.40
2016,04,15,09,26,11.40
2016,04,15,09,27,11.40
2016,04,15,09,28,11.40
2016,04,15,09,29,11.30
2016,04,15,09,30,11.30
2016,04,15,09,31,11.30
2016,04,15,09,32,11.30
2016,04,15,09,33,11.30
2016,04,15,09,34,11.30
2016,04,15,09,35,11.30
2016,04,15,09,36,11.30
2016,04,15,09,37,11.30
2016,04,15,09,38,11.30
2016,04,15,09,39,11.20
2016,04,15,09,40,11.20
2016,04,15,09,41,11.20
2016,04,15,09,42,11.10
2016,04,15,09,43,11.10
2016,04,15,09,44,11.10
2016,04,15,09,45,11.10
2016,04,15,09,46,11.10
2016,04,15,09,47,11.10
2016,04,15,09,48,11.10
2016,04,15,09,49,11.10
2016,04,15,09,50,11.10
2016,04,15,09,51,11.00
2016,04,15,09,52,10.90
2016,04,15,09,53,10.90
2016,04,15,09,54,10.80
2016,04,15,09,55,10.80
2016,04,15,09,56,10.80
2016,04,15,09,57,10.70
2016,04,15,09,58,10.70
2016,04,15,09,59,10.60
2016,04,15,10,00,10.60
2016,04,15,10,01,10.50
2016,04,15,10,02,10.50
2016,04,15,10,03,10.40
2016,04,15,10,04,10.40
2016,04,15,10,05,10.40
2016,04,15,10,06,10.40
2016,04,15,10,07,10.40
2016,04,15,10,08,10.40
2016,04,15,10,09,10.40
2016,04,15,10,10,10.40
2016,04,15,10,11,10.40
2016,04,15,10,12,10.40
2016,04,15,10,13,10.40
2016,04,15,10,14,10.40
2016,04,15,10,15,10.40
2016,04,15,10,16,10.40
2016,04,15,10,17,10.40
2016,04,15,10,18,10.50
2016,04,15,10,19,10.50
2016,04,15,10,20,10.50
2016,04,15,10,21,10.60
2016,04,15,10,22,10.60
2016,04,15,10,23,10.60
2016,04,15,10,24,10.60
2016,04,15,10,25,10.60
2016,04,15,10,26,10.60
2016,04,15,10,27,10.60
2016,04,15,10,28,10.70
2016,04,15,10,29,10.70
2016,04,15,10,30,10.70
2016,04,15,10,31,10.70
2016,04,15,10,32,10.60
2016,04,15,10,33,10.60
2016,04,15,10,34,10.60
2016,04,15,10,35,10.60
2016,04,15,10,36,10.60
2016,04,15,10,37,10.50
2016,04,15,10,38,10.50
2016,04,15,10,39,10.50
2016,04,15,10,40,10.50
2016,04,15,10,41,10.50
2016,04,15,10,42,10.40
2016,04,15,10,43,10.40
2016,04,15,10,44,10.40
2016,04,15,10,45,10.50
2016,04,15,10,46,10.50
2016,04,15,10,47,10.50
2016,04,15,10,48,10.50
2016,04,15,10,49,10.50
2016,04,15,10,50,10.50
2016,04,15,10,51,10.60
2016,04,15,10,52,10.60
2016,04,15,10,53,10.60
2016,04,15,10,54,10.60
2016,04,15,10,55,10.60
2016,04,15,10,56,10.60
2016,04,15,10,57,10.60
2016,04,15,10,58,10.60
2016,04,15,10,59,10.60
2016,04,15,11,00,10.60
2016,04,15,11,01,10.60
2016,04,15,11,02,10.60
2016,04,15,11,03,10.60
2016,04,15,11,04,10.70
2016,04,15,11,05,10.70
2016,04,15,11,06,10.70
2016,04,15,11,07,10.70
2016,04,15,11,08,10.70
2016,04,15,11,09,10.70
2016,04,15,11,10,10.70
2016,04,15,11,11,10.70
2016,04,15,11,12,10.80
2016,04,15,11,13,10.80
2016,04,15,11,14,10.80
2016,04,15,11,15,10.80
2016,04,15,11,16,10.80
2016,04,15,11,17,10.80
2016,04,15,11,18,10.80
2016,04,15,11,19,10.80
2016,04,15,11,20,10.80
2016,04,15,11,21,10.80
2016,04,15,11,22,10.80
2016,04,15,11,23,10.80
2016,04,15,11,24,10.80
2016,04,15,11,25,10.80
2016,04,15,11,26,10.80
2016,04,15,11,27,10.80
2016,04,15,11,28,10.80
2016,04,15,11,29,10.80
2016,04,15,11,30,10.80
2016,04,15,11,31,10.80
2016,04,15,11,32,10.80
2016,04,15,11,33,10.80
2016,04,15,11,34,10.80
2016,04,15,11,35,10.80
2016,04,15,11,36,10.90
2016,04,15,11,37,10.90
2016,04,15,11,38,10.90
2016,04,15,11,39,10.90
2016,04,15,11,40,10.80
2016,04,15,11,41,10.80
2016,04,15,11,42,10.80
2016,04,15,11,43,10.80
2016,04,15,11,44,10.80
2016,04,15,11,45,10.80
2016,04,15,11,46,10.80
2016,04,15,11,47,10.80
2016,04,15,11,48,10.80
2016,04,15,11,49,10.80
2016,04,15,11,50,10.80
2016,04,15,11,51,10.80
2016,04,15,11,52,10.80
2016,04,15,11,53,10.80
2016,04,15,11,54,10.80
2016,04,15,11,55,10.80
2016,04,15,11,56,10.80
2016,04,15,11,57,10.80
2016,04,15,11,58,10.80
2016,04,15,11,59,10.80
2016,04,15,12,00,10.90
2016,04,15,12,01,10.90
2016,04,15,12,02,10.90
2016,04,15,12,03,10.90
2016,04,15,12,04,11.00
2016,04,15,12,05,11.00
2016,04,15,12,06,11.10
2016,04,15,12,07,11.10
2016,04,15,12,08,11.10
2016,04,15,12,09,11.10
2016,04,15,12,10,11.20
2016,04,15,12,11,11.20
2016,04,15,12,12,11.20
2016,04,15,12,13,11.20
2016,04,15,12,14,11.20
2016,04,15,12,15,11.20
2016,04,15,12,16,11.20
2016,04,15,12,17,11.20
2016,04,15,12,18,11.20
2016,04,15,12,19,11.30
2016,04,15,12,20,11.30
2016,04,15,12,21,11.30
2016,04,15,12,22,11.30
2016,04,15,12,23,11.30
2016,04,15,12,24,11.40
2016,04,15,12,25,11.40
2016,04,15,12,26,11.50
2016,04,15,12,27,11.50
2016,04,15,12,28,11.60
2016,04,15,12,29,11.70
2016,04,15,12,30,11.70
2016,04,15,12,31,11.70
2016,04,15,12,32,11.80
2016,04,15,12,33,11.80
2016,04,15,12,34,11.80
2016,04,15,12,35,11.90
2016,04,15,12,36,11.90
2016,04,15,12,37,11.90
2016,04,15,12,38,12.00
2016,04,15,12,39,12.00
2016,04,15,12,40,12.00
2016,04,15,12,41,12.10
2016,04,15,12,42,12.10
2016,04,15,12,43,12.10
2016,04,15,12,44,12.10
2016,04,15,12,45,12.20
2016,04,15,12,46,12.20
2016,04,15,12,47,12.30
2016,04,15,12,48,12.30
2016,04,15,12,49,12.40
2016,04,15,12,50,12.40
2016,04,15,12,51,12.40
2016,04,15,12,52,12.40
2016,04,15,12,53,12.50
2016,04,15,12,54,12.50
2016,04,15,12,55,12.50
2016,04,15,12,56,12.60
2016,04,15,12,57,12.60
2016,04,15,12,58,12.60
2016,04,15,12,59,12.60
2016,04,15,13,00,12.60
2016,04,15,13,01,12.60
2016,04,15,13,02,12.50
2016,04,15,13,03,12.50
2016,04,15,13,04,12.50
2016,04,15,13,05,12.50
2016,04,15,13,06,12.50
2016,04,15,13,07,12.60
2016,04,15,13,08,12.60
2016,04,15,13,09,12.60
2016,04,15,13,10,12.70
2016,04,15,13,11,12.80
2016,04,15,13,12,12.80
2016,04,15,13,13,12.90
2016,04,15,13,14,12.90
2016,04,15,13,15,13.00
2016,04,15,13,16,13.00
2016,04,15,13,17,13.00
2016,04,15,13,18,12.90
2016,04,15,13,19,12.90
2016,04,15,13,20,12.90
2016,04,15,13,21,12.90
2016,04,15,13,22,12.90
2016,04,15,13,23,13.00
2016,04,15,13,24,13.10
2016,04,15,13,25,13.20
2016,04,15,13,26,13.20
2016,04,15,13,27,13.30
2016,04,15,13,28,13.30
2016,04,15,13,29,13.30
2016,04,15,13,30,13.30
2016,04,15,13,31,13.30
2016,04,15,13,32,13.20
2016,04,15,13,33,13.20
2016,04,15,13,34,13.10
2016,04,15,13,35,13.10
2016,04,15,13,36,13.10
2016,04,15,13,37,13.20
2016,04,15,13,38,13.20
2016,04,15,13,39,13.20
2016,04,15,13,40,13.20
2016,04,15,13,41,13.20
2016,04,15,13,42,13.20
2016,04,15,13,43,13.20
2016,04,15,13,44,13.20
2016,04,15,13,45,13.20
2016,04,15,13,46,13.20
2016,04,15,13,47,13.20
2016,04,15,13,48,13.20
2016,04,15,13,49,13.20
2016,04,15,13,50,13.20
2016,04,15,13,51,13.20
2016,04,15,13,52,13.20
2016,04,15,13,53,13.30
2016,04,15,13,54,13.30
2016,04,15,13,55,13.30
2016,04,15,13,56,13.30
2016,04,15,13,57,13.30
2016,04,15,13,58,13.40
2016,04,15,13,59,13.40
2016,04,15,14,00,13.50
2016,04,15,14,01,13.60
2016,04,15,14,02,13.60
2016,04,15,14,03,13.70
2016,04,15,14,04,13.70
2016,04,15,14,05,13.70
2016,04,15,14,06,13.80
2016,04,15,14,07,13.80
2016,04,15,14,08,13.70
2016,04,15,14,09,13.70
2016,04,15,14,10,13.70
2016,04,15,14,11,13.70
2016,04,15,14,12,13.70
2016,04,15,14,13,13.70
2016,04,15,14,14,13.70
2016,04,15,14,15,13.60
2016,04,15,14,16,13.60
2016,04,15,14,17,13.60
2016,04,15,14,18,13.60
2016,04,15,14,19,13.60
2016,04,15,14,20,13.60
2016,04,15,14,21,13.60
2016,04,15,14,22,13.60
2016,04,15,14,23,13.60
2016,04,15,14,24,13.60
2016,04,15,14,25,13.70
2016,04,15,14,26,13.70
2016,04,15,14,27,13.70
2016,04,15,14,28,13.70
2016,04,15,14,29,13.80
2016,04,15,14,30,13.80
2016,04,15,14,31,13.70
2016,04,15,14,32,13.70
2016,04,15,14,33,13.70
2016,04,15,14,34,13.70
2016,04,15,14,35,13.60
2016,04,15,14,36,13.60
2016,04,15,14,37,13.50
2016,04,15,14,38,13.50
2016,04,15,14,39,13.50
2016,04,15,14,40,13.40
2016,04,15,14,41,13.40
2016,04,15,14,42,13.30
2016,04,15,14,43,13.30
2016,04,15,14,44,13.20
2016,04,15,14,45,13.10
2016,04,15,14,46,12.90
2016,04,15,14,47,12.80
2016,04,15,14,48,12.70
2016,04,15,14,49,12.70
2016,04,15,14,50,12.70
2016,04,15,14,51,12.60
2016,04,15,14,52,12.60
2016,04,15,14,53,12.50
2016,04,15,14,54,12.50
2016,04,15,14,55,12.50
2016,04,15,14,56,12.60
2016,04,15,14,57,12.60
2016,04,15,14,58,12.70
2016,04,15,14,59,12.70
2016,04,15,15,00,12.80
2016,04,15,15,01,12.80
2016,04,15,15,02,12.80
2016,04,15,15,03,12.80
2016,04,15,15,04,12.90
2016,04,15,15,05,12.90
2016,04,15,15,06,12.80
2016,04,15,15,07,12.80
2016,04,15,15,08,12.80
2016,04,15,15,09,12.80
2016,04,15,15,10,12.80
2016,04,15,15,11,12.80
2016,04,15,15,12,12.80
2016,04,15,15,13,12.70
2016,04,15,15,14,12.70
2016,04,15,15,15,12.60
2016,04,15,15,16,12.50
2016,04,15,15,17,12.40
2016,04,15,15,18,12.30
2016,04,15,15,19,12.30
2016,04,15,15,20,12.30
2016,04,15,15,21,12.30
2016,04,15,15,22,12.30
2016,04,15,15,23,12.20
2016,04,15,15,24,12.20
2016,04,15,15,25,12.20
2016,04,15,15,26,12.20
2016,04,15,15,27,12.10
2016,04,15,15,28,12.10
2016,04,15,15,29,12.20
2016,04,15,15,30,12.20
2016,04,15,15,31,12.20
2016,04,15,15,32,12.10
2016,04,15,15,33,12.20
2016,04,15,15,34,12.20
2016,04,15,15,35,12.20
2016,04,15,15,36,12.20
2016,04,15,15,37,12.10
2016,04,15,15,38,12.20
2016,04,15,15,39,12.20
2016,04,15,15,40,12.20
2016,04,15,15,41,12.20
2016,04,15,15,42,12.10
2016,04,15,15,43,12.10
2016,04,15,15,44,12.10
2016,04,15,15,45,12.10
2016,04,15,15,46,12.10
2016,04,15,15,47,12.10
2016,04,15,15,48,12.10
2016,04,15,15,49,12.00
2016,04,15,15,50,12.00
2016,04,15,15,51,12.00
2016,04,15,15,52,12.00
2016,04,15,15,53,12.00
2016,04,15,15,54,12.10
2016,04,15,15,55,12.10
2016,04,15,15,56,12.10
2016,04,15,15,57,12.20
2016,04,15,15,58,12.20
2016,04,15,15,59,12.20
2016,04,15,16,00,12.20
2016,04,15,16,01,12.30
2016,04,15,16,02,12.30
2016,04,15,16,03,12.30
2016,04,15,16,04,12.30
2016,04,15,16,05,12.30
2016,04,15,16,06,12.30
2016,04,15,16,07,12.30
2016,04,15,16,08,12.40
2016,04,15,16,09,12.40
2016,04,15,16,10,12.40
2016,04,15,16,11,12.40
2016,04,15,16,12,12.40
2016,04,15,16,13,12.50
2016,04,15,16,14,12.50
2016,04,15,16,15,12.40
2016,04,15,16,16,12.40
2016,04,15,16,17,12.40
2016,04,15,16,18,12.40
2016,04,15,16,19,12.40
2016,04,15,16,20,12.40
2016,04,15,16,21,12.40
2016,04,15,16,22,12.40
2016,04,15,16,23,12.40
2016,04,15,16,24,12.30
2016,04,15,16,25,12.30
2016,04,15,16,26,12.20
2016,04,15,16,27,12.20
2016,04,15,16,28,12.20
2016,04,15,16,29,12.20
2016,04,15,16,30,12.10
2016,04,15,16,31,12.10
2016,04,15,16,32,12.10
2016,04,15,16,33,12.10
2016,04,15,16,34,12.00
2016,04,15,16,35,11.90
2016,04,15,16,36,11.80
2016,04,15,16,37,11.80
2016,04,15,16,38,11.80
2016,04,15,16,39,11.80
2016,04,15,16,40,11.80
2016,04,15,16,41,11.90
2016,04,15,16,42,11.90
2016,04,15,16,43,12.00
2016,04,15,16,44,12.00
2016,04,15,16,45,12.10
2016,04,15,16,46,12.10
2016,04,15,16,47,12.10
2016,04,15,16,48,12.20
2016,04,15,16,49,12.20
2016,04,15,16,50,12.20
2016,04,15,16,51,12.30
2016,04,15,16,52,12.30
2016,04,15,16,53,12.30
2016,04,15,16,54,12.30
2016,04,15,16,55,12.30
2016,04,15,16,56,12.30
2016,04,15,16,57,12.20
2016,04,15,16,58,12.20
2016,04,15,16,59,12.10
2016,04,15,17,00,12.10
2016,04,15,17,01,12.10
2016,04,15,17,02,12.00
2016,04,15,17,03,12.00
2016,04,15,17,04,12.00
2016,04,15,17,05,12.00
2016,04,15,17,06,12.00
2016,04,15,17,07,12.00
2016,04,15,17,08,12.00
2016,04,15,17,09,12.00
2016,04,15,17,10,12.00
2016,04,15,17,11,12.10
2016,04,15,17,12,12.10
2016,04,15,17,13,12.20
2016,04,15,17,14,12.20
2016,04,15,17,15,12.20
2016,04,15,17,16,12.20
2016,04,15,17,17,12.10
2016,04,15,17,18,12.10
2016,04,15,17,19,12.10
2016,04,15,17,20,12.00
2016,04,15,17,21,12.00
2016,04,15,17,22,11.90
2016,04,15,17,23,11.90
2016,04,15,17,24,11.90
2016,04,15,17,25,11.90
2016,04,15,17,26,11.90
2016,04,15,17,27,11.90
2016,04,15,17,28,11.80
2016,04,15,17,29,11.80
2016,04,15,17,30,11.70
2016,04,15,17,31,11.70
2016,04,15,17,32,11.80
2016,04,15,17,33,11.80
2016,04,15,17,34,11.80
2016,04,15,17,35,11.80
2016,04,15,17,36,11.90
2016,04,15,17,37,11.90
2016,04,15,17,38,11.90
2016,04,15,17,39,11.90